STARLINK-2495, 48325

Orbit data source: Space-Track

STARLINK-2495, 48325 is a payload satellite owned by SpaceX/Seattle (US) in LEO that was launched on Thu, 29 Apr 2021 UTC via an FALCON 9 launch vehicle from the Air Force Eastern Test Range (AFETR). Payload-class satellites include a variety of spacecraft equipped with specific instruments for various scientific and technological missions. These include communications satellites like Starlink; space stations such as the ISS; scientific satellites like the Hubble; Earth observation satellites from companies like Planet Labs, Umbra, and HawkEye 360; GPS; miniature CubeSats for education and research; and military/defense satellites.

Loading next visibility...
Identifier
48325, 2021-036BB
Orbit
LEO
Country
Flag of USUS
Related business
Manufacturer
SpaceX/Seattle
Mission
Operational Commercial Communications
Bus & Motor
STARLINK, Unknown motor
Mass
260 kg wet, ~248 kg dry
Launch date (UTC)
2021-04-29 (5 years ago)
Launch vehicle
FALCON 9
Launch site
Air Force Eastern Test Range (AFETR)
Object type
Payload
Rocket body
Debris
Shape & HBR
Box + 1 Pan, 10.1 m
Radar Cross Section
13.562 m², Large (>1 m²)

Expand to show TLE details & history
Last TLE update: 15 hours ago

TLE from 15 hours ago
0 STARLINK-2495
1 48325U 21036BB  26035.85816733  .00000739  00000-0  68482-4 0  9992
2 48325  53.0569 249.0046 0001372  88.3792 271.7355 15.06405727263083
Epoch: 2026-02-04T20:35Z
TLE epoch observation values (Epoch: 2026-02-04T20:35:45.657Z)
Latitude
0.00006°
Longitude
165.04568°
Altitude
548.045 km
Speed
7.589 km/s
True Right ascension
16h 36m 01s
True Declination
0° 00' 00"
Sunlit
Object was in daylight at epoch
Visualization orbit readout
Latitude
Unknown
Longitude
Unknown
Altitude
Unknown
Speed
Unknown
Apparent Right ascension
Unknown
Apparent Declination
Unknown
Sunlit
N/A
Visualization observer readout
Local Sidereal Time
13:36:01
Azimuth
Unknown
Elevation
Unknown
Doppler factor
Unknown
Orbital elements
Apogee altitude
548.415 km
Perigee altitude
546.514 km
Semi-major axis
6,925.601 km
Eccentricity
0.00014
Inclination
53.0569°
RAAN
249.0046°
Arg. of periapsis
88.3792°
True anomaly
271.71979°
Mean anomaly
271.7355°
Eccentric anomaly
271.72764°
Mean motion
3.7658 °/min
Orbital period
95.6 mins
BSTAR
0.000068482
Loading maneuver chart data...
Computing Atmospheric mass density...
Loading historical data...
Loading historical data...
Loading historical data...
Loading historical data...
Loading historical data...
Loading historical data...
Loading historical data...

Documentation

Showing up to 5 results
|